Hourly Weather Kyzylshekara

Today, 23 October, Friday

Time Temperature Precipitation Wind Pressure Humidity
00:00 +5°C° 0 mm 1 mps 611 mmHg 42%
01:00 +4°C° 0 mm 1 mps 610 mmHg 43%
02:00 +4°C° 0 mm 1 mps 610 mmHg 45%
03:00 +2°C° 0 mm 0 mps 610 mmHg 46%
04:00 +2°C° 0 mm 0 mps 609 mmHg 47%
05:00 +2°C° 0 mm 0 mps 609 mmHg 47%
06:00 +3°C° 0 mm 0 mps 610 mmHg 45%
07:00 +3°C° 0 mm 0 mps 610 mmHg 42%
08:00 +5°C° 0 mm 1 mps 610 mmHg 40%
09:00 +6°C° 0 mm 1 mps 610 mmHg 38%
10:00 +8°C° 0 mm 1 mps 611 mmHg 36%
11:00 +9°C° 0 mm 1 mps 611 mmHg 34%
12:00 +9°C° 0 mm 1 mps 611 mmHg 33%
13:00 +10°C° 0 mm 1 mps 611 mmHg 33%
14:00 +10°C° 0 mm 1 mps 612 mmHg 33%
15:00 +8°C° 0 mm 2 mps 611 mmHg 41%
16:00 +5°C° 0 mm 3 mps 611 mmHg 49%
17:00 +4°C° 0 mm 3 mps 611 mmHg 57%
18:00 +1°C° 0.1 mm 2 mps 614 mmHg 80%
19:00 +1°C° 0.1 mm 2 mps 613 mmHg 81%
20:00 +1°C° 0.1 mm 3 mps 612 mmHg 82%
21:00 0°C° 0.7 mm 3 mps 612 mmHg 85%
22:00 -1°C° 0.7 mm 3 mps 613 mmHg 88%
23:00 -1°C° 0.7 mm 3 mps 613 mmHg 91%

Tomorrow, 24 October, Saturday

Time Temperature Precipitation Wind Pressure Humidity
00:00 -1°C° 0.5 mm 3 mps 613 mmHg 89%
01:00 -2°C° 0.5 mm 3 mps 613 mmHg 87%
02:00 -2°C° 0.5 mm 3 mps 613 mmHg 85%
03:00 -3°C° 0 mm 2 mps 613 mmHg 84%
04:00 -3°C° 0 mm 2 mps 614 mmHg 82%
05:00 -2°C° 0 mm 1 mps 614 mmHg 81%
06:00 -1°C° 0 mm 1 mps 614 mmHg 79%
07:00 0°C° 0 mm 1 mps 615 mmHg 76%
08:00 0°C° 0 mm 1 mps 615 mmHg 73%
09:00 +1°C° 0 mm 1 mps 615 mmHg 72%
10:00 +2°C° 0 mm 1 mps 615 mmHg 71%
11:00 +3°C° 0 mm 1 mps 615 mmHg 70%
12:00 +3°C° 0 mm 1 mps 615 mmHg 69%
13:00 +3°C° 0 mm 1 mps 615 mmHg 68%
14:00 +4°C° 0 mm 1 mps 615 mmHg 66%
15:00 +3°C° 0 mm 1 mps 615 mmHg 72%
16:00 +2°C° 0 mm 1 mps 615 mmHg 78%
17:00 +1°C° 0 mm 1 mps 615 mmHg 84%
18:00 0°C° 0 mm 1 mps 615 mmHg 86%
19:00 -1°C° 0 mm 1 mps 615 mmHg 88%
20:00 -1°C° 0 mm 1 mps 615 mmHg 91%
21:00 -3°C° 0 mm 0 mps 615 mmHg 91%
22:00 -3°C° 0 mm 0 mps 615 mmHg 90%
23:00 -3°C° 0 mm 0 mps 615 mmHg 90%

Day after tomorrow, 25 October, Sunday

Time Temperature Precipitation Wind Pressure Humidity
00:00 -3°C° 0 mm 0 mps 615 mmHg 89%
01:00 -3°C° 0 mm 0 mps 615 mmHg 89%
02:00 -3°C° 0 mm 0 mps 615 mmHg 88%
03:00 -3°C° 0 mm 0 mps 615 mmHg 87%
04:00 -3°C° 0 mm 0 mps 614 mmHg 85%
05:00 -3°C° 0 mm 0 mps 614 mmHg 84%
06:00 -2°C° 0 mm 0 mps 615 mmHg 80%
07:00 -1°C° 0 mm 0 mps 615 mmHg 77%
08:00 -1°C° 0 mm 0 mps 616 mmHg 73%
09:00 +2°C° 0 mm 1 mps 616 mmHg 68%
10:00 +3°C° 0 mm 1 mps 617 mmHg 64%
11:00 +4°C° 0 mm 1 mps 617 mmHg 59%
12:00 +5°C° 0 mm 1 mps 617 mmHg 55%
13:00 +6°C° 0 mm 1 mps 617 mmHg 52%
14:00 +6°C° 0 mm 1 mps 617 mmHg 48%
15:00 +4°C° 0 mm 0 mps 617 mmHg 52%
16:00 +3°C° 0 mm 0 mps 617 mmHg 56%
17:00 +2°C° 0 mm 0 mps 617 mmHg 60%
18:00 +1°C° 0 mm 0 mps 617 mmHg 60%
19:00 +1°C° 0 mm 0 mps 618 mmHg 60%
20:00 0°C° 0 mm 0 mps 618 mmHg 60%
21:00 0°C° 0 mm 0 mps 618 mmHg 60%
22:00 0°C° 0 mm 0 mps 618 mmHg 60%
23:00 0°C° 0 mm 0 mps 618 mmHg 60%

, 26 October, Monday

Time Temperature Precipitation Wind Pressure Humidity
00:00 -1°C° 0 mm 0 mps 617 mmHg 60%
01:00 -1°C° 0 mm 0 mps 617 mmHg 59%
02:00 -1°C° 0 mm 0 mps 617 mmHg 59%
03:00 -1°C° 0 mm 0 mps 617 mmHg 59%
04:00 -1°C° 0 mm 0 mps 617 mmHg 59%
05:00 -1°C° 0 mm 0 mps 617 mmHg 59%
06:00 0°C° 0 mm 0 mps 617 mmHg 56%
07:00 +1°C° 0 mm 0 mps 617 mmHg 54%
08:00 +2°C° 0 mm 0 mps 617 mmHg 51%
09:00 +3°C° 0 mm 0 mps 617 mmHg 48%
10:00 +6°C° 0 mm 1 mps 617 mmHg 45%
11:00 +7°C° 0 mm 1 mps 617 mmHg 41%
12:00 +8°C° 0 mm 1 mps 617 mmHg 39%
13:00 +8°C° 0 mm 1 mps 616 mmHg 38%
14:00 +9°C° 0 mm 1 mps 616 mmHg 36%
15:00 +7°C° 0 mm 1 mps 616 mmHg 39%
16:00 +6°C° 0 mm 1 mps 615 mmHg 43%
17:00 +3°C° 0 mm 0 mps 614 mmHg 47%
18:00 +3°C° 0 mm 0 mps 614 mmHg 45%
19:00 +3°C° 0 mm 0 mps 614 mmHg 44%
20:00 +2°C° 0 mm 0 mps 614 mmHg 43%
21:00 +2°C° 0 mm 0 mps 614 mmHg 41%
22:00 +2°C° 0 mm 0 mps 613 mmHg 40%
23:00 +2°C° 0 mm 0 mps 613 mmHg 39%

26 October, Monday

Time Temperature Precipitation Wind Pressure Humidity
00:00 -1°C° 0 mm 0 mps 617 mmHg 60%
01:00 -1°C° 0 mm 0 mps 617 mmHg 59%
02:00 -1°C° 0 mm 0 mps 617 mmHg 59%
03:00 -1°C° 0 mm 0 mps 617 mmHg 59%
04:00 -1°C° 0 mm 0 mps 617 mmHg 59%
05:00 -1°C° 0 mm 0 mps 617 mmHg 59%
06:00 0°C° 0 mm 0 mps 617 mmHg 56%
07:00 +1°C° 0 mm 0 mps 617 mmHg 54%
08:00 +2°C° 0 mm 0 mps 617 mmHg 51%
09:00 +3°C° 0 mm 0 mps 617 mmHg 48%
10:00 +6°C° 0 mm 1 mps 617 mmHg 45%
11:00 +7°C° 0 mm 1 mps 617 mmHg 41%
12:00 +8°C° 0 mm 1 mps 617 mmHg 39%
13:00 +8°C° 0 mm 1 mps 616 mmHg 38%
14:00 +9°C° 0 mm 1 mps 616 mmHg 36%
15:00 +7°C° 0 mm 1 mps 616 mmHg 39%
16:00 +6°C° 0 mm 1 mps 615 mmHg 43%
17:00 +3°C° 0 mm 0 mps 614 mmHg 47%
18:00 +3°C° 0 mm 0 mps 614 mmHg 45%
19:00 +3°C° 0 mm 0 mps 614 mmHg 44%
20:00 +2°C° 0 mm 0 mps 614 mmHg 43%
21:00 +2°C° 0 mm 0 mps 614 mmHg 41%
22:00 +2°C° 0 mm 0 mps 613 mmHg 40%
23:00 +2°C° 0 mm 0 mps 613 mmHg 39%

27 October, Tuesday

Time Temperature Precipitation Wind Pressure Humidity
00:00 +2°C° 0 mm 0 mps 613 mmHg 38%
01:00 +2°C° 0 mm 0 mps 613 mmHg 38%
02:00 +2°C° 0 mm 0 mps 613 mmHg 38%
03:00 +2°C° 0 mm 0 mps 612 mmHg 38%
04:00 +2°C° 0 mm 0 mps 612 mmHg 38%
05:00 +1°C° 0 mm 0 mps 612 mmHg 39%
06:00 +3°C° 0 mm 0 mps 612 mmHg 37%
07:00 +4°C° 0 mm 0 mps 613 mmHg 35%
08:00 +5°C° 0 mm 0 mps 613 mmHg 34%
09:00 +6°C° 0 mm 0 mps 613 mmHg 32%
10:00 +9°C° 0 mm 1 mps 613 mmHg 30%
11:00 +10°C° 0 mm 1 mps 613 mmHg 28%
12:00 +11°C° 0 mm 1 mps 613 mmHg 27%
13:00 +11°C° 0 mm 1 mps 613 mmHg 27%
14:00 +12°C° 0 mm 1 mps 612 mmHg 26%
15:00 +10°C° 0 mm 1 mps 612 mmHg 28%
16:00 +9°C° 0 mm 1 mps 611 mmHg 31%
17:00 +8°C° 0 mm 1 mps 610 mmHg 33%
18:00 +7°C° 0 mm 1 mps 610 mmHg 32%
19:00 +7°C° 0 mm 1 mps 610 mmHg 31%
20:00 +7°C° 0 mm 1 mps 610 mmHg 30%
21:00 +7°C° 0 mm 1 mps 610 mmHg 29%
22:00 +6°C° 0 mm 1 mps 610 mmHg 28%
23:00 +6°C° 0 mm 1 mps 610 mmHg 28%

28 October, Wednesday

Time Temperature Precipitation Wind Pressure Humidity
00:00 +6°C° 0 mm 1 mps 610 mmHg 28%
01:00 +6°C° 0 mm 1 mps 610 mmHg 29%
02:00 +5°C° 0 mm 2 mps 609 mmHg 29%
03:00 +5°C° 0 mm 2 mps 609 mmHg 32%
04:00 +5°C° 0 mm 2 mps 610 mmHg 34%
05:00 +4°C° 0 mm 2 mps 610 mmHg 36%
06:00 +6°C° 0 mm 1 mps 610 mmHg 36%
07:00 +7°C° 0 mm 1 mps 611 mmHg 36%
08:00 +7°C° 0 mm 1 mps 612 mmHg 36%
09:00 +8°C° 0 mm 1 mps 612 mmHg 34%
10:00 +9°C° 0 mm 1 mps 613 mmHg 33%
11:00 +9°C° 0 mm 2 mps 613 mmHg 31%
12:00 +9°C° 0 mm 2 mps 613 mmHg 32%
13:00 +9°C° 0 mm 2 mps 613 mmHg 32%
14:00 +9°C° 0 mm 2 mps 614 mmHg 33%
15:00 +8°C° 0 mm 2 mps 614 mmHg 38%
16:00 +6°C° 0 mm 2 mps 614 mmHg 44%
17:00 +5°C° 0 mm 2 mps 614 mmHg 49%
18:00 +5°C° 0 mm 1 mps 614 mmHg 54%
19:00 +4°C° 0 mm 1 mps 614 mmHg 59%
20:00 +4°C° 0 mm 1 mps 615 mmHg 64%
21:00 +3°C° 0 mm 1 mps 615 mmHg 70%
22:00 +2°C° 0 mm 1 mps 615 mmHg 75%
23:00 +2°C° 0 mm 1 mps 615 mmHg 80%
Show more

We Need Your Consent

Meteoprog and our Service Providers may store and access personal data such as cookies, device identifiers or other similar technologies on your device and process such data to personalise content and ads, as well as provide social media features and to analyse the traffic.

  • Store and/or access information on your device

    Cookies, device identifiers or other information can be stored or accessed on your device for the purposes indicated above.

  • Personalised ads and content, ad and content measurement, audience insights, and products development

    Ads and content can be personalised based on a profile. More data can be added to better personalise ads and content. Ad and content performance can be measured. Insights about the audience who saw the ads and content can be derived. Such data can be used to develop or improve user’s experience, systems and software.

By clicking ‘I Agree’ you will allow the use of indicated cookies, device identifiers, web beacons or other similar technologies. Your settings can be changed in the browser on your device.

For certain purposes, legitimate interests may be relied on, rather than consent. You can read more about this in our Privacy and Cookie Policy.